Home   Weather   Hamilton   Past weeks
Flag for Bermuda

Past Weather in Hamilton, Bermuda — Yesterday and Last 2 Weeks

Now
84 °F

Scattered clouds.


Feels Like: 92 °F
Forecast: N/A
Wind: 14 mph from West

Location: Bermuda

Current Time: Jul 21, 2019 at 8:28:56 pm

Latest Report: Jul 21, 2019 at 7:55 pm


Visibility: N/A

Pressure: 30.09 "Hg

Humidity: 74%

Dew Point: 75 °F

Location of HamiltonLocation

Past Weather in Hamilton — Graph

°F

Hamilton Temperature Yesterday

Maximum temperature yesterday: 88 °F (at 2:55 pm)
Minimum temperature yesterday: 81 °F (at 4:55 am)
Average temperature yesterday: 84 °F

High & Low Weather Summary for the Past Weeks

 TemperatureHumidityPressure
High88 °F (Jul 20, 2:55 pm)100% (Jul 10, 1:55 am)30.18 "Hg (Jul 10, 1:55 am)
Low75 °F (Jul 10, 1:37 am)58% (Jul 11, 3:55 pm)30.04 "Hg (Jul 10, 5:55 pm)
Average82 °F80%30.11 "Hg
* Reported Jul 6 6:55 pm — Jul 21 6:55 pm, Hamilton. Weather by CustomWeather, © 2019

Note: Actual official high and low records may vary slightly from our data, if they occured in-between our weather recording intervals... More about our weather records

Advertising

Hamilton Weather History for the Previous 24 Hours

Scroll right to see more
 ConditionsComfort  
Time TempWeatherWind HumidityBarometerVisibility
6:55 pm
Sun, Jul 21
84 °FScattered clouds.15 mph74%30.09 "HgN/A
5:55 pm86 °FBroken clouds.15 mph75%30.09 "HgN/A
4:55 pm86 °FBroken clouds.16 mph75%30.09 "HgN/A
3:55 pm86 °FBroken clouds.16 mph75%30.09 "HgN/A
2:55 pm86 °FScattered clouds.16 mph70%30.09 "HgN/A
1:55 pm86 °FScattered clouds.13 mph75%30.09 "HgN/A
12:55 pm86 °FScattered clouds.12 mph70%30.09 "HgN/A
11:55 am86 °FPassing clouds.13 mph70%30.09 "HgN/A
10:55 am84 °FScattered clouds.14 mph74%30.09 "HgN/A
9:55 am84 °FScattered clouds.12 mph74%30.09 "HgN/A
8:55 am82 °FScattered clouds.12 mph79%30.09 "HgN/A
7:55 am82 °FScattered showers. Scattered clouds.10 mph79%30.09 "HgN/A
7:42 am82 °FScattered showers. Broken clouds.8 mph79%30.09 "HgN/A
7:12 am81 °FSprinkles. Broken clouds.12 mph84%30.09 "HgN/A
6:55 am82 °FScattered showers. Scattered clouds.9 mph79%30.09 "HgN/A
5:55 am82 °FPassing clouds.10 mph79%30.07 "HgN/A
4:55 am82 °FPassing clouds.10 mph79%30.07 "HgN/A
3:55 am82 °FPassing clouds.10 mph79%30.07 "HgN/A
2:55 am82 °FPassing clouds.9 mph84%30.07 "HgN/A
1:55 am82 °FPassing clouds.13 mph79%30.07 "HgN/A
12:55 am82 °FPassing clouds.12 mph79%30.07 "HgN/A
11:55 pm
Sat, Jul 20
82 °FPassing clouds.14 mph79%30.07 "HgN/A
10:55 pm82 °FPassing clouds.10 mph84%30.09 "HgN/A
9:55 pm82 °FPassing clouds.12 mph84%30.09 "HgN/A
8:55 pm82 °FPassing clouds.13 mph84%30.07 "HgN/A
Weather by CustomWeather, © 2019

See weather overview